Weather History for K04W - February, 2014

Change the Weather History Date:

Friday, February 14, 2014

  Actual Average (KJMR) Record (KJMR)
Temperature  
Mean Temperature 4 °F -  
Max Temperature 17 °F 27 °F 48 °F (1983)
Min Temperature -9 °F 4 °F -31 °F (1970)
Degree Days  
Heating Degree Days 61    
Moisture  
Dew Point -3 °F    
Average Humidity 70    
Maximum Humidity 85    
Minimum Humidity 45    
Precipitation  
Precipitation 0.00 in - - ()
Sea Level Pressure  
Sea Level Pressure 29.89 in    
Wind  
Wind Speed 6 mph (NNW)    
Max Wind Speed 13 mph    
Max Gust Speed 17 mph    
Visibility 10 miles    
Events      
Averages and records for this station are not official NWS values.
T = Trace of Precipitation, MM = Missing Value Source: NWS Daily Summary

Daily Weather History Graph

Daily Weather History Graph

Search for Another Location

Airport or City:

Trip Planner

Search our weather history database for the weather conditions in past years. The results will help you decide how hot, cold, wet, or windy it might be!

Date:

Astronomy

Feb. 14, 2014 Rise Set
Actual Time 7:15 AM CST 5:36 PM CST
Civil Twilight 6:44 AM CST 6:07 PM CST
Nautical Twilight 6:09 AM CST 6:42 PM CST
Astronomical Twilight 5:35 AM CST 7:16 PM CST
Moon 5:43 PM CST (2/14) 6:41 AM CST (2/14)
Length of Visible Light 11h 22m
Length of Day
10h 20m
Full, 100% of the Moon is Illuminated
Feb 14
Full
Feb 14
Full
Feb 22
Last Quarter
Mar 1
New
Mar 8
First Quarter

Hourly Weather History & Observations

Time (CST) Temp. Windchill Dew Point Humidity Pressure Visibility Wind Dir Wind Speed Gust Speed Precip Events Conditions
12:20 AM 10.4 °F -0.4 °F 3.2 °F 73% 29.70 in 10.0 mi North 6.9 mph - N/A   Clear
12:39 AM 10.4 °F 2.2 °F 3.2 °F 73% 29.71 in 10.0 mi North 4.6 mph - N/A   Clear
1:00 AM 8.6 °F 0.1 °F 3.2 °F 79% 29.71 in 10.0 mi NNE 4.6 mph - N/A   Clear
1:19 AM 6.8 °F -4.8 °F 3.2 °F 85% 29.71 in 10.0 mi North 6.9 mph - N/A   Clear
1:39 AM 6.8 °F -2.0 °F 3.2 °F 85% 29.72 in 10.0 mi North 4.6 mph - N/A   Clear
2:00 AM 5.0 °F -4.1 °F 1.4 °F 85% 29.73 in 10.0 mi North 4.6 mph - N/A   Clear
2:19 AM 5.0 °F -5.6 °F 1.4 °F 85% 29.74 in 10.0 mi North 5.8 mph - N/A   Clear
2:40 AM 5.0 °F -4.1 °F 1.4 °F 85% 29.75 in 10.0 mi NNW 4.6 mph - N/A   Clear
2:59 AM 5.0 °F -6.9 °F -0.4 °F 78% 29.75 in 10.0 mi North 6.9 mph - N/A   Clear
3:19 AM 3.2 °F -9.1 °F -0.4 °F 85% 29.76 in 10.0 mi North 6.9 mph - N/A   Scattered Clouds
3:40 AM 3.2 °F -7.8 °F -0.4 °F 85% 29.76 in 10.0 mi NNW 5.8 mph - N/A   Clear
3:59 AM 3.2 °F -6.2 °F -0.4 °F 85% 29.76 in 10.0 mi NNW 4.6 mph - N/A   Clear
4:19 AM 3.2 °F -7.8 °F -0.4 °F 85% 29.77 in 10.0 mi NNW 5.8 mph - N/A   Clear
4:40 AM 3.2 °F -7.8 °F -0.4 °F 85% 29.78 in 10.0 mi NNW 5.8 mph - N/A   Clear
4:59 AM 3.2 °F -10.3 °F -0.4 °F 85% 29.78 in 10.0 mi NNW 8.1 mph - N/A   Clear
5:19 AM 1.4 °F -9.9 °F -2.2 °F 85% 29.79 in 10.0 mi NNW 5.8 mph - N/A   Clear
5:40 AM 3.2 °F -10.3 °F -2.2 °F 78% 29.79 in 10.0 mi NNW 8.1 mph - N/A   Clear
5:59 AM 1.4 °F -9.9 °F -4.0 °F 78% 29.80 in 10.0 mi NNW 5.8 mph - N/A   Clear
6:20 AM 1.4 °F -15.3 °F -4.0 °F 78% 29.80 in 10.0 mi NNW 11.5 mph 16.1 mph N/A   Clear
6:39 AM 1.4 °F -13.5 °F -4.0 °F 78% 29.81 in 10.0 mi NNW 9.2 mph - N/A   Clear
6:59 AM 1.4 °F -11.3 °F -4.0 °F 78% 29.82 in 10.0 mi NNW 6.9 mph - N/A   Clear
7:20 AM 1.4 °F -12.5 °F -4.0 °F 78% 29.83 in 10.0 mi NNW 8.1 mph - N/A   Clear
7:39 AM 1.4 °F -13.5 °F -5.8 °F 72% 29.84 in 10.0 mi NNW 9.2 mph - N/A   Clear
8:00 AM 1.4 °F -14.5 °F -5.8 °F 72% 29.85 in 10.0 mi NNW 10.4 mph - N/A   Clear
8:20 AM 1.4 °F -15.3 °F -5.8 °F 72% 29.86 in 10.0 mi NNW 11.5 mph 17.3 mph N/A   Clear
8:39 AM 1.4 °F -16.1 °F -5.8 °F 72% 29.88 in 10.0 mi NNW 12.7 mph 16.1 mph N/A   Clear
9:00 AM 1.4 °F -15.3 °F -5.8 °F 72% 29.88 in 10.0 mi NNW 11.5 mph - N/A   Clear
9:20 AM 3.2 °F -11.3 °F -5.8 °F 66% 29.89 in 10.0 mi NNW 9.2 mph - N/A   Clear
9:39 AM 3.2 °F -13.9 °F -5.8 °F 66% 29.90 in 10.0 mi NNW 12.7 mph - N/A   Clear
10:00 AM 5.0 °F -10.8 °F -4.0 °F 66% 29.91 in 10.0 mi North 11.5 mph 16.1 mph N/A   Clear
10:19 AM 6.8 °F -7.8 °F -4.0 °F 61% 29.91 in 10.0 mi NNW 10.4 mph - N/A   Clear
10:40 AM 6.8 °F -6.9 °F -4.0 °F 61% 29.92 in 10.0 mi NW 9.2 mph - N/A   Clear
11:00 AM 8.6 °F -3.7 °F -4.0 °F 57% 29.92 in 10.0 mi NNW 8.1 mph - N/A   Clear
11:19 AM 8.6 °F -3.7 °F -2.2 °F 62% 29.93 in 10.0 mi NW 8.1 mph - N/A   Clear
11:40 AM 10.4 °F 0.8 °F -2.2 °F 57% 29.93 in 10.0 mi NW 5.8 mph - N/A   Clear
11:59 AM 10.4 °F -1.5 °F -0.4 °F 62% 29.93 in 10.0 mi NNW 8.1 mph - N/A   Clear
12:20 PM 12.2 °F 2.9 °F -0.4 °F 57% 29.93 in 10.0 mi NNW 5.8 mph - N/A   Clear
12:40 PM 12.2 °F 0.7 °F -0.4 °F 57% 29.93 in 10.0 mi NW 8.1 mph - N/A   Clear
12:59 PM 14.0 °F 2.9 °F -0.4 °F 53% 29.92 in 10.0 mi NW 8.1 mph - N/A   Clear
1:20 PM 14.0 °F 5.1 °F -0.4 °F 53% 29.92 in 10.0 mi WNW 5.8 mph - N/A   Clear
1:40 PM 14.0 °F 2.9 °F -0.4 °F 53% 29.92 in 10.0 mi NNW 8.1 mph - N/A   Clear
1:59 PM 15.8 °F 6.1 °F -0.4 °F 49% 29.92 in 10.0 mi NW 6.9 mph - N/A   Clear
2:20 PM 15.8 °F 6.1 °F 1.4 °F 53% 29.92 in 10.0 mi West 6.9 mph - N/A   Clear
2:39 PM 17.6 °F 9.3 °F -0.4 °F 45% 29.93 in 10.0 mi NW 5.8 mph - N/A   Clear
3:00 PM 17.6 °F 5.0 °F 1.4 °F 49% 29.93 in 10.0 mi NNW 11.5 mph - N/A   Clear
3:20 PM 17.6 °F 7.3 °F 1.4 °F 49% 29.93 in 10.0 mi NW 8.1 mph - N/A   Clear
3:39 PM 17.6 °F 8.2 °F 1.4 °F 49% 29.94 in 10.0 mi NW 6.9 mph - N/A   Clear
4:00 PM 17.6 °F 9.3 °F 1.4 °F 49% 29.95 in 10.0 mi NW 5.8 mph - N/A   Clear
4:19 PM 17.6 °F 6.4 °F 1.4 °F 49% 29.95 in 10.0 mi NNW 9.2 mph - N/A   Clear
4:40 PM 17.6 °F 7.3 °F 1.4 °F 49% 29.95 in 10.0 mi NNW 8.1 mph - N/A   Clear
5:00 PM 17.6 °F 8.2 °F 1.4 °F 49% 29.95 in 10.0 mi NNW 6.9 mph - N/A   Clear
5:19 PM 17.6 °F 9.3 °F 1.4 °F 49% 29.96 in 10.0 mi NNW 5.8 mph - N/A   Clear
5:40 PM 15.8 °F 10.2 °F 1.4 °F 53% 29.97 in 10.0 mi NW 3.5 mph - N/A   Clear
5:59 PM 14.0 °F - -0.4 °F 53% 29.98 in 10.0 mi Calm Calm - N/A   Clear
6:20 PM 8.6 °F - -4.0 °F 57% 29.97 in 10.0 mi Calm Calm - N/A   Clear
6:40 PM 12.2 °F - 1.4 °F 62% 29.97 in 10.0 mi Calm Calm - N/A   Clear
6:59 PM 8.6 °F - -0.4 °F 67% 29.97 in 10.0 mi Calm Calm - N/A   Clear
7:20 PM 1.4 °F - -4.0 °F 78% 29.96 in 10.0 mi Calm Calm - N/A   Clear
7:40 PM 1.4 °F - -4.0 °F 78% 29.96 in 10.0 mi Calm Calm - N/A   Clear
7:59 PM -0.4 °F - -5.8 °F 78% 29.96 in 10.0 mi Calm Calm - N/A   Clear
8:20 PM -4.0 °F - -9.4 °F 78% 29.96 in 10.0 mi Calm Calm - N/A   Clear
8:39 PM -4.0 °F - -7.6 °F 85% 29.97 in 10.0 mi Calm Calm - N/A   Clear
9:00 PM -2.2 °F - -5.8 °F 85% 29.97 in 10.0 mi Calm Calm - N/A   Clear
9:20 PM -4.0 °F - -7.6 °F 85% 29.98 in 10.0 mi Calm Calm - N/A   Clear
9:39 PM -4.0 °F - -7.6 °F 85% 29.99 in 10.0 mi Calm Calm - N/A   Clear
10:00 PM -5.8 °F - -9.4 °F 84% 29.98 in 10.0 mi Calm Calm - N/A   Clear
10:20 PM -5.8 °F - -9.4 °F 84% 29.99 in 10.0 mi Calm Calm - N/A   Clear
10:40 PM -7.6 °F - -13.0 °F 77% 29.98 in 10.0 mi Calm Calm - N/A   Clear
10:59 PM -9.4 °F - -13.0 °F 84% 29.98 in 10.0 mi Calm Calm - N/A   Clear
11:20 PM -7.6 °F - -11.2 °F 84% 29.97 in 10.0 mi Calm Calm - N/A   Clear
11:40 PM -7.6 °F -16.5 °F -11.2 °F 84% 29.97 in 10.0 mi SW 3.5 mph - N/A   Clear
11:59 PM -7.6 °F - -13.0 °F 77% 29.97 in 10.0 mi Calm Calm - N/A   Clear